Stations météo

réclame
Mon MeteoGroup
St-Hubert, Belgique (6476): Température de l'air & dewpoint: 17.09.2017 23:00:00 - 23.09.2017 23:00:00 (CEST)St-Hubert, Belgique (6476): Vitesse du vent & gusts: 17.09.2017 23:00:00 - 23.09.2017 23:00:00 (CEST)St-Hubert, Belgique (6476): Direction du vent: 17.09.2017 23:00:00 - 23.09.2017 23:00:00 (CEST)St-Hubert, Belgique (6476): reduced air pressure: 17.09.2017 23:00:00 - 23.09.2017 23:00:00 (CEST)St-Hubert, Belgique (6476): visibility: 17.09.2017 23:00:00 - 23.09.2017 23:00:00 (CEST)
Date & Time tt [°C] td [°C] ff [km/h] ff [knt] fx [km/h] fx [knt] dd ppp [hPa] vv [km]
23.09.2017 23:00:00 9,3 8,2 14 8 - - E 1023,2 -
23.09.2017 22:00:00 9,3 7,8 14 8 18 10 ENE 1023,2 -
23.09.2017 21:00:00 10,7 8,8 11 6 14 8 NE 1022,8 11
23.09.2017 20:00:00 11,5 8,5 11 6 - - NE 1022,6 25
23.09.2017 19:00:00 13,8 8,5 11 6 14 8 NNE 1021,9 35
23.09.2017 18:00:00 15,0 8,0 11 6 14 8 NE 1021,5 40
23.09.2017 17:00:00 15,9 7,5 7 4 - - N 1021,5 35
23.09.2017 16:00:00 15,6 7,5 4 2 14 8 - 1022,2 35
23.09.2017 15:00:00 15,9 6,9 7 4 14 8 ENE 1022,6 30
23.09.2017 14:00:00 14,7 8,1 7 4 - - NE 1023,0 35
23.09.2017 13:00:00 13,8 7,2 7 4 22 12 NE 1023,5 30
23.09.2017 12:00:00 13,1 7,8 11 6 18 10 NE 1024,0 24
23.09.2017 11:00:00 12,3 8,7 11 6 - - NE 1024,2 27
23.09.2017 10:00:00 10,2 9,0 11 6 50 27 ENE 1024,6 9
23.09.2017 09:00:00 8,6 7,8 11 6 14 8 ENE 1024,5 0,9
23.09.2017 08:00:00 7,3 6,8 11 6 - - ENE 1025,0 0,2
23.09.2017 07:00:00 7,8 7,6 7 4 14 8 ENE 1024,8 -
23.09.2017 06:00:00 8,2 7,8 11 6 11 6 NE 1024,6 0,1
23.09.2017 05:00:00 8,7 8,5 11 6 - - ENE 1024,6 -
23.09.2017 04:00:00 8,9 8,6 7 4 18 10 NE 1024,6 -
23.09.2017 03:00:00 10,1 9,6 11 6 18 10 NE 1024,3 0,3
23.09.2017 02:00:00 10,1 9,6 11 6 - - NE 1024,3 0,2
23.09.2017 01:00:00 10,5 9,8 7 4 14 8 NNE 1024,1 2,7
23.09.2017 00:00:00 11,1 10,0 7 4 11 6 NNW 1023,8 4,9
22.09.2017 23:00:00 9,9 8,9 4 2 - - N 1024,3 4,6
22.09.2017 22:00:00 11,3 9,9 4 2 11 6 NNW 1023,7 9
22.09.2017 21:00:00 11,5 9,8 7 4 11 6 NW 1023,3 13
22.09.2017 20:00:00 12,5 10,3 7 4 - - NNW 1022,5 22
22.09.2017 19:00:00 13,7 9,5 7 4 14 8 WNW 1021,8 35
22.09.2017 18:00:00 14,0 8,3 11 6 18 10 WNW 1021,6 40
22.09.2017 17:00:00 14,7 7,9 11 6 - - NW 1021,2 35
22.09.2017 16:00:00 14,8 8,2 14 8 18 10 NW 1021,2 30
22.09.2017 15:00:00 15,7 8,3 14 8 18 10 WNW 1020,8 35
22.09.2017 14:00:00 14,9 8,7 7 4 - - - 1020,8 35
22.09.2017 13:00:00 14,2 8,6 4 2 11 6 WSW 1020,8 30
22.09.2017 12:00:00 13,1 8,3 4 2 130 70 NE 1020,9 35
22.09.2017 11:00:00 13,3 8,0 7 4 - - NW 1020,9 30
22.09.2017 10:00:00 11,9 7,6 4 2 7 4 WSW 1020,9 28
22.09.2017 09:00:00 10,4 7,3 0 0 4 2 N 1020,7 28
22.09.2017 08:00:00 8,5 6,0 0 0 - - N 1020,9 30
22.09.2017 07:00:00 7,4 5,3 4 2 7 4 SSE 1020,9 27
22.09.2017 06:00:00 8,1 5,1 4 2 11 6 S 1020,8 26
22.09.2017 05:00:00 7,6 4,9 7 4 - - SSE 1020,9 35
22.09.2017 04:00:00 8,4 5,0 7 4 14 8 SE 1020,7 45
22.09.2017 03:00:00 8,6 5,0 7 4 11 6 SE 1021,0 45
22.09.2017 02:00:00 8,9 5,6 7 4 - - SSE 1020,9 45
22.09.2017 01:00:00 8,9 6,1 7 4 11 6 SE 1020,8 35
22.09.2017 00:00:00 9,5 6,1 4 2 11 6 SSE 1020,8 35
21.09.2017 23:00:00 9,2 6,0 4 2 - - S 1020,9 40
21.09.2017 22:00:00 9,9 6,8 4 2 14 8 SSE 1020,6 40
21.09.2017 21:00:00 10,4 7,2 7 4 14 8 SE 1020,3 40
21.09.2017 20:00:00 10,7 7,2 7 4 - - SE 1019,9 45
21.09.2017 19:00:00 13,1 8,5 4 2 14 8 S 1019,1 35
21.09.2017 18:00:00 14,3 8,4 4 2 18 10 S 1018,9 30
21.09.2017 17:00:00 14,4 8,2 7 4 - - - 1019,0 35
21.09.2017 16:00:00 13,8 8,1 7 4 90 49 SSE 1019,4 35
21.09.2017 15:00:00 - - - - - - - - -
21.09.2017 14:00:00 - - - - - - - - -
21.09.2017 13:00:00 - - - - - - - - -
21.09.2017 12:00:00 - - - - - - - - -
21.09.2017 11:00:00 11,5 7,7 7 4 - - S 1021,3 30
21.09.2017 10:00:00 10,0 7,0 11 6 18 10 SSE 1021,5 30
21.09.2017 09:00:00 8,7 6,6 11 6 22 12 SE 1021,6 25
21.09.2017 08:00:00 7,2 5,8 7 4 - - SSE 1022,0 16
21.09.2017 07:00:00 6,6 5,3 7 4 14 8 SE 1022,1 22
21.09.2017 06:00:00 6,2 4,8 7 4 11 6 SE 1022,3 16
21.09.2017 05:00:00 6,1 3,9 7 4 - - SE 1022,5 45
21.09.2017 04:00:00 6,2 4,3 7 4 11 6 SE 1022,7 45
21.09.2017 03:00:00 6,5 4,7 7 4 11 6 SSE 1022,8 35
21.09.2017 02:00:00 6,7 5,2 7 4 - - SSE 1022,8 40
21.09.2017 01:00:00 7,1 5,4 7 4 11 6 SSE 1022,7 45
21.09.2017 00:00:00 6,3 4,9 4 2 7 4 SSE 1023,1 40
20.09.2017 23:00:00 5,8 4,6 4 2 - - S 1023,1 40
20.09.2017 22:00:00 7,3 5,8 4 2 7 4 SSW 1022,9 28
20.09.2017 21:00:00 7,6 6,4 4 2 7 4 SSW 1022,9 35
20.09.2017 20:00:00 8,5 6,9 4 2 - - SSW 1022,4 35
20.09.2017 19:00:00 11,0 7,1 7 4 18 10 WSW 1021,8 45
20.09.2017 18:00:00 11,7 7,4 7 4 18 10 WSW 1021,6 40
20.09.2017 17:00:00 10,8 8,0 7 4 - - WSW 1022,1 30
20.09.2017 16:00:00 10,6 7,8 11 6 18 10 W 1022,4 45
20.09.2017 15:00:00 11,4 6,8 7 4 18 10 W 1022,2 45
20.09.2017 14:00:00 11,1 7,6 11 6 - - WSW 1022,4 30
20.09.2017 13:00:00 11,0 6,9 7 4 18 10 WSW 1022,7 35
20.09.2017 12:00:00 10,1 6,5 7 4 22 12 SW 1022,8 28
20.09.2017 11:00:00 9,7 6,6 11 6 - - WSW 1022,8 26
20.09.2017 10:00:00 8,6 7,5 7 4 115 62 WSW 1023,0 6
20.09.2017 09:00:00 8,2 7,5 7 4 115 62 SW 1022,7 2,3
20.09.2017 08:00:00 8,1 7,5 7 4 - - W 1022,7 -
20.09.2017 07:00:00 8,2 7,9 7 4 14 8 W 1022,6 -
20.09.2017 06:00:00 8,3 7,9 7 4 130 70 W 1022,4 -
20.09.2017 05:00:00 8,5 7,9 4 2 - - W 1022,3 -
20.09.2017 04:00:00 8,6 8,0 7 4 126 68 NW 1022,5 0,2
20.09.2017 03:00:00 8,9 8,2 4 2 11 6 NNW 1022,4 0,7
20.09.2017 02:00:00 9,0 8,3 4 2 - - NW 1022,6 0,5
20.09.2017 01:00:00 8,6 7,7 4 2 11 6 W 1022,7 4,2
20.09.2017 00:00:00 7,4 6,2 4 2 7 4 W 1023,0 11
19.09.2017 23:00:00 7,2 5,6 0 0 - - N 1023,0 12
19.09.2017 22:00:00 9,4 5,7 4 2 11 6 NW 1022,2 17
19.09.2017 21:00:00 10,2 5,9 7 4 11 6 N 1021,7 26
19.09.2017 20:00:00 9,8 6,0 7 4 - - N 1021,2 40
19.09.2017 19:00:00 11,3 6,3 11 6 22 12 NNW 1020,4 40
19.09.2017 18:00:00 11,2 7,2 14 8 25 14 NNW 1019,9 40
19.09.2017 17:00:00 11,7 7,4 14 8 - - NW 1019,5 35
19.09.2017 16:00:00 11,2 8,1 11 6 25 14 NW 1019,3 26
19.09.2017 15:00:00 10,7 7,8 11 6 22 12 WNW 1019,5 21
19.09.2017 14:00:00 - - 14 8 - - WNW - 11
19.09.2017 13:00:00 - - 14 8 144 78 NW - 30
19.09.2017 12:00:00 - - - - - - - - -
19.09.2017 11:00:00 8,2 7,2 - - - - - 1019,1 -
19.09.2017 10:00:00 7,9 6,8 - - - - - 1018,6 -
19.09.2017 09:00:00 7,3 6,5 - - - - - 1018,3 -
19.09.2017 08:00:00 7,4 6,8 - - - - - 1018,0 -
19.09.2017 07:00:00 7,6 7,0 - - - - - 1017,5 -
19.09.2017 06:00:00 7,5 6,9 - - - - - 1017,4 -
19.09.2017 05:00:00 7,5 6,7 - - - - - 1017,4 -
19.09.2017 04:00:00 7,6 7,1 - - - - - 1017,6 -
19.09.2017 03:00:00 7,7 7,1 - - - - - 1017,6 -
19.09.2017 02:00:00 7,7 7,1 - - - - - 1017,6 -
19.09.2017 01:00:00 7,7 7,1 7 4 119 64 W 1017,5 0,1
19.09.2017 00:00:00 7,6 7,0 7 4 115 62 WSW 1017,7 0,1
18.09.2017 23:00:00 7,6 6,9 7 4 - - WSW 1017,6 0,3
18.09.2017 22:00:00 7,5 6,8 7 4 115 62 WSW 1017,6 0,5
18.09.2017 21:00:00 7,4 6,7 11 6 22 12 WSW 1017,5 -
18.09.2017 20:00:00 7,5 6,6 7 4 - - SW 1017,0 28
18.09.2017 19:00:00 8,3 7,2 7 4 25 14 SW 1016,5 40
18.09.2017 18:00:00 9,1 7,4 11 6 25 14 - 1016,1 12
18.09.2017 17:00:00 9,9 7,8 11 6 - - SW 1016,0 25
18.09.2017 16:00:00 9,6 7,3 11 6 25 14 WSW 1016,3 27
18.09.2017 15:00:00 9,7 7,7 - - - - - 1016,2 -
18.09.2017 14:00:00 - - - - - - - - -
18.09.2017 13:00:00 8,4 7,4 - - - - - 1016,8 -
18.09.2017 12:00:00 7,9 6,8 - - - - - 1016,6 6
18.09.2017 11:00:00 7,5 6,7 - - - - - 1016,6 -
18.09.2017 10:00:00 6,9 6,2 - - - - - 1016,5 -
18.09.2017 09:00:00 6,4 5,8 - - - - - 1016,2 -
18.09.2017 08:00:00 6,1 5,4 - - - - - 1016,2 -
18.09.2017 07:00:00 5,6 5,0 - - - - - 1016,0 -
18.09.2017 06:00:00 5,7 5,1 - - - - - 1015,8 -
18.09.2017 05:00:00 6,1 5,5 - - - - - 1015,7 -
18.09.2017 04:00:00 5,1 4,3 - - - - - 1015,8 -
18.09.2017 03:00:00 6,2 5,8 - - - - - 1015,6 -
18.09.2017 02:00:00 5,4 4,3 - - - - - 1015,9 -
18.09.2017 01:00:00 6,2 5,1 - - - - - 1015,8 -
18.09.2017 00:00:00 5,7 4,3 - - - - - 1015,9 -
17.09.2017 23:00:00 6,9 5,5 - - - - - 1015,5 -

tt = Température de l'air
td = dewpoint
ff = Vitesse du vent
fx = gusts
dd = Direction du vent
ppp = reduced air pressure
vv = visibility

stations d'obs. à proximité